Starlink 31479

operational
NORAD ID: 59316 Int'l Des: 2024-056 Owner: SPXS Country: US Constellation: starlink
LEOCIRCULAR

Über Starlink 31479

Beschreibung wird geladen...

Live-Position

3D-Globus wird geladen...

Nächste Überflüge

Höhenverlauf

Altitude vs Time

uPlot chart will show altitude changes over time

Zweizeiliger Elementsatz

1 59316U 24056W 25258.95377090 .00001173 00000-0 52129-4 0 9998
2 59316 43.0018 141.5865 0001195 267.0279 93.0436 15.27584076 84384
Epoch: 15. Sept. 2025 • Age: 23 hours

Aktueller Status

Höhe 485.3 km
Geschwindigkeit 7.63 km/s
Subsatellitenpunkt 35.27°N, 49.64°W
Startdatum 24. März 2024
Alter 1.4 years
Typ internet

Technische Details

Klassifizierung Payload
Masse 730.00 kg
Trockenmasse 700.00 kg
Gesamtmasse 730.00 kg
Länge 0.30 m
Durchmesser 4.10 m
Spannweite 29.00 m
Form Box + pan
Hersteller SPXS
Bus-Typ Starlink V2M
Phasenstatus In Orbit
Besitzer/Staat SPXS/US

Große Konstellationen

Loading constellations...